{"data":{"norad_id":62955,"epoch":"2026-05-24T23:33:48.593088Z","epoch_age_seconds":79817,"freshness":"FRESH","line1":"1 62955U 25029H   26144.98181242  .00014700  00000+0  48424-3 0  9993","line2":"2 62955  53.1575 237.7037 0001596  91.1674 268.9510 15.31718774 73019","mean_motion":15.31718774,"eccentricity":0.0001596,"inclination_deg":53.1575,"raan_deg":237.7037,"arg_perigee_deg":91.1674,"mean_anomaly_deg":268.951,"bstar":0.00048424,"rev_number":7301,"period_min":94.012035658447,"perigee_km":469.59095964356,"apogee_km":471.77710331681,"semimajor_km":6848.8210314802,"source":"CELESTRAK","updated_at":"2026-05-25T13:38:19.825513Z"}}